Regional Weather Roundup
Issued by NWS

Home | Current Version | Previous Version | Graphics & Text | Print | Product List | Glossary Off
Versions: 1 2 3 4 5 6 7 8 9 10 11 12 13 14 15 16 17 18 19 20 21 22 23 24 25 26 27 28 29 30 31 32 33 34 35 36 37 38 39 40 41 42 43 44 45 46 47 48 49 50

000
ASUS43 KMKX 290500
RWRWI

WISCONSIN REGIONAL WEATHER ROUNDUP
NATIONAL WEATHER SERVICE MILWAUKEE/SULLIVAN WI
1200 AM CDT THU JUN 29 2017

NOTE: "FAIR" INDICATES FEW OR NO CLOUDS BELOW 12,000 FEET WITH NO
SIGNIFICANT WEATHER AND/OR OBSTRUCTIONS TO VISIBILITY.

WIZ001-002-006>008-014>016-023>028-290600-
NORTHWEST WISCONSIN

CITY           SKY/WX    TMP DP  RH WIND       PRES   REMARKS
SUPERIOR ARPT  NOT AVBL
ASHLAND        CLOUDY    63  62  97 CALM      29.51S FOG
HAYWARD        CLOUDY    66  64  93 SW6       29.54S
SIREN          CLOUDY    65  62  90 W9        29.56R
CUMBERLAND     CLOUDY    64  61  88 W13       29.58R
RICE LAKE      CLOUDY    67  64  90 W8        29.59R
CHETEK         CLOUDY    67  65  94 SW7       29.58R
LADYSMITH      CLOUDY    66  65  96 S7        29.59S
EAU CLAIRE     NOT AVBL
MENOMONIE      PTCLDY    68  65  93 S9        29.60R
NEW RICHMOND   CLOUDY    66  58  75 W10       29.60R
OSCEOLA        CLOUDY    67  61  79 W8        29.62R
$$

WIZ003>005-009-010-017-018-290600-
NORTH CENTRAL WISCONSIN

CITY           SKY/WX    TMP DP  RH WIND       PRES   REMARKS
MANITOWISH WTR CLOUDY    64  64 100 S8        29.59R
ARBOR VITAE    CLOUDY    65  64  95 S8        29.60S
WOODRUFF       CLOUDY    65  64  95 S8        29.60S
RHINELANDER    CLOUDY    65  65 100 S6        29.62F
EAGLE RIVER    CLOUDY    64  64 100 S5        29.62S
LAND O LAKES   CLOUDY    64  64 100 S5        29.63S FOG
PHILLIPS       CLOUDY    65  65 100 S7        29.58R
TOMAHAWK       NOT AVBL
MEDFORD        CLOUDY    64  63  97 S7        29.61S
MERRILL        CLOUDY    66  66 100 S5        29.62S
$$

WIZ029-030-035-036-043>047-290600-
CENTRAL WISCONSIN

CITY           SKY/WX    TMP DP  RH WIND       PRES   REMARKS
WAUSAU         CLOUDY    66  65  96 S7        29.61S
MOSINEE        CLOUDY    64  64 100 S8        29.64S FOG
MARSHFIELD     CLOUDY    65  63  93 S8        29.62R FOG
STEVENS POINT  CLOUDY    65  65 100 SW8       29.64S
WAUPACA        CLOUDY    67  66  94 S6        29.65R
WAUTOMA        CLOUDY    64  63  96 SE7       29.64F
WISC RAPIDS    CLOUDY    67  65  93 CALM      29.64S
CAMP DOUGLAS   CLOUDY    68  64  88 SW15G23   29.61F
$$

WIZ011>013-019>022-031-037>040-048>050-290600-
NORTHEAST WISCONSIN

CITY           SKY/WX    TMP DP  RH WIND       PRES   REMARKS
ANTIGO         CLOUDY    64  64 100 S7        29.64S FOG
SHAWANO        CLOUDY    68  64  88 S3        29.64S
OCONTO         CLOUDY    64  62  94 S6        29.63F
STURGEON BAY     N/A     62  60  93 S10       29.66S
GREEN BAY      CLOUDY    67  64  90 S13       29.65S
MANITOWOC      NOT AVBL
APPLETON       CLOUDY    64  63  94 S18       29.64F
CLINTONVILLE   CLOUDY    66  63  88 S10       29.64R
OSHKOSH        CLOUDY    66  63  90 VRB3      29.66R
$$

WIZ032>034-041-042-053>061-290600-
SOUTHWEST WISCONSIN

CITY           SKY/WX    TMP DP  RH WIND       PRES   REMARKS
LA CROSSE      LGT RAIN  70  66  87 S10       29.64S
SPARTA         CLOUDY    65  64  98 SW6       29.66R
VIROQUA        CLOUDY    66  66 100 S8        29.69S
BOSCOBEL       CLOUDY    68  66  93 SE3       29.71R
PRAIRIE DU CHI CLOUDY    67  64  92 N5        29.69R
PLATTEVILLE    CLOUDY    67  67 100 CALM      29.71R
$$

WIZ056-057-062-063-064-067-068-290600-
SOUTH CENTRAL WISCONSIN

CITY           SKY/WX    TMP DP  RH WIND       PRES   REMARKS
REEDSBURG      CLOUDY    65  65 100 S5        29.68F
BARABOO/DELLS  CLOUDY    67  64  90 SW9       29.69R
LONE ROCK      MOCLDY    68  65  90 W3        29.69R
MINERAL POINT  CLOUDY    66  66 100 S5        29.69S
MADISON        CLOUDY    66  65  96 S7        29.70S
MIDDLETON      CLOUDY    67  67 100 SE6       29.71R
WATERTOWN      CLOUDY    65  65 100 S8G17     29.71F
MONROE         TSTM      68  64  88 CALM      29.71S
JANESVILLE     CLOUDY    66  66 100 SE7       29.72F
$$

WIZ051-052-058>065-066-070>072-290600-
SOUTHEAST WISCONSIN

CITY           SKY/WX    TMP DP  RH WIND       PRES   REMARKS
MILWAUKEE      LGT RAIN  66  65  96 S17G25    29.72F
WAUKESHA       CLOUDY    63  61  94 S16       29.73F
MILWAUKEE/TIMM RAIN      64  61  88 S10G17    29.75F
RACINE         RAIN      65  63  93 SE15      29.76F FOG
KENOSHA        LGT RAIN  65  63  93 S17       29.77F
FOND DU LAC    CLOUDY    67  62  84 S13       29.67F
SHEBOYGAN      CLOUDY    65  64  97 S14       29.69F
WEST BEND      CLOUDY    63  63 100 S10G17    29.69F
JUNEAU         CLOUDY    64  63  96 S12G17    29.68F
$$

LSZ147-162-290600-
LAKE SUPERIOR

STATION/POSITION TIME  TEMP    WIND        PRES    WAVE
                       AIR SEA DIR/SP/G            HT/PER
                 (UTC) (F)     (DEG/KT/KT) (MB)    (FT/S)
W MID LAKE BUOY  0350   46 39   70/ 16/ 17 1001.1F   2/ 3
DEVILS ISLAND    0400   51      70/ 18/ 21  999.8R
SAXON HARBOR     0440   65     190/  1/  3  999.3R
$$

LMZ867-665-643>646-290600-
LAKE MICHIGAN

STATION/POSITION TIME  TEMP    WIND        PRES    WAVE
                       AIR SEA DIR/SP/G            HT/PER
                 (UTC) (F)     (DEG/KT/KT) (MB)    (FT/S)
CHAMBERS ISLAND  0440   62     170/  5/ 11 1003.7S
S GREEN BAY BUOY 0430   66     180/ 14/ 17 1003.8R
N MID LAKE BUOY  0350   58 54  180/ 16/ 17 1005.0F   6/ 7
NORTHPORT PIER   0440   60     170/  9/ 15 1004.4S
KEWAUNEE LAKESHO 0430   55     190/ 11/ 13 1004.7R
SHEBOYGAN LAKESH 0400   58     180/ 19/ 21 1006.2R
PORT WASHINGTON  0440   58     200/ 10/ 15 1006.8F
ATWATER BUOY     0309   55 47  170/ 14/ 16 1008.4R
MILWAUKEE LAKESH 0430   62     180/ 19/ 21   N/A
S MID LAKE BUOY  0350   62 60  140/ 10/ 12 1010.4S   3/ 5
KENOSHA   LAKESH 0400   65     210/  7/  9 1010.5
$$

TC  - TEMPERATURE IN CELSIUS
VSB - VISIBILITY IN STATUTE MILES
WCI - WIND CHILL INDEX
HX  - HEAT INDEX





USA.gov is the U.S. government's official web portal to all federal, state and local government web resources and services.